Location: Unspecified
(40.0646°N, 0.0000°E)
Time: 04:15:02
(UTC+00:00)

Nimbus 4 Rocket F - Visible Passes

Search period start: 05 April 2026 00:00
Search period end: 15 April 2026 00:00
Orbit: 921 x 953 km, 99.5° (Epoch: 29 March)

Date Brightness Start Highest point End Pass type
(mag) Time Alt. Az. Time Alt. Az. Time Alt. Az.
5 Apr 8.0 23:34:51 21° N 23:34:51 21° N 23:36:44 10° N visible
6 Apr 8.3 22:04:27 11° NE 22:04:27 11° NE 22:04:58 10° NE visible
6 Apr 8.0 23:48:16 21° N 23:48:16 21° N 23:50:08 10° NNW visible
7 Apr 8.2 22:17:52 13° NE 22:17:52 13° NE 22:19:14 10° NNE visible
8 Apr 8.0 00:01:41 21° NNW 00:01:41 21° NNW 00:03:28 10° NNW visible
8 Apr 8.1 22:31:17 16° NNE 22:31:17 16° NNE 22:33:10 10° NNE visible
9 Apr 8.0 00:15:06 20° NNW 00:15:06 20° NNW 00:16:46 10° NNW visible
9 Apr 7.9 22:44:42 19° NNE 22:44:42 19° NNE 22:46:54 10° N visible
10 Apr 8.1 00:28:31 18° NNW 00:28:31 18° NNW 00:29:59 10° NNW visible
10 Apr 7.8 22:58:06 22° NNE 22:58:06 22° NNE 23:00:32 10° N visible
11 Apr 8.2 00:41:55 16° NW 00:41:55 16° NW 00:43:07 10° NNW visible
11 Apr 7.7 23:11:30 25° NNE 23:11:30 25° NNE 23:14:05 10° N visible
12 Apr 8.2 00:55:19 14° NW 00:55:19 14° NW 00:56:09 10° NW visible
12 Apr 7.6 23:24:54 27° N 23:24:54 27° N 23:27:33 10° N visible
13 Apr 8.3 01:08:43 11° NW 01:08:43 11° NW 01:09:03 10° NW visible
13 Apr 7.6 23:38:18 28° N 23:38:18 28° N 23:40:59 10° N visible
14 Apr 8.2 22:07:53 12° NE 22:07:53 12° NE 22:09:27 10° NNE visible
14 Apr 7.6 23:51:42 28° NNW 23:51:42 28° NNW 23:54:20 10° NNW visible
